owner,sensor,date,latitude,longitude,vertical_datum,sea_water_practical_salinity,qcFlag 
COMPS,ioos:station:USF.COMPS:ANC:1,2009-08-04T19:00:00Z,28.1930,-82.7890,1.0,88.626,1111122 
COMPS,ioos:station:USF.COMPS:ANC:1,2009-08-04T19:06:00Z,28.1930,-82.7890,1.0,88.691,1111122 
COMPS,ioos:station:USF.COMPS:ANC:1,2009-08-04T19:12:00Z,28.1930,-82.7890,1.0,88.74,1111122 
COMPS,ioos:station:USF.COMPS:ANC:1,2009-08-04T19:18:00Z,28.1930,-82.7890,1.0,88.804,1111122 
COMPS,ioos:station:USF.COMPS:ANC:1,2009-08-04T19:24:00Z,28.1930,-82.7890,1.0,88.869,1111122 
COMPS,ioos:station:USF.COMPS:ANC:1,2009-08-04T19:30:00Z,28.1930,-82.7890,1.0,88.885,1111122 
COMPS,ioos:station:USF.COMPS:ANC:1,2009-08-04T19:36:00Z,28.1930,-82.7890,1.0,88.998,1111122 
COMPS,ioos:station:USF.COMPS:ANC:1,2009-08-04T19:42:00Z,28.1930,-82.7890,1.0,89.112,1111122 
COMPS,ioos:station:USF.COMPS:ANC:1,2009-08-04T19:48:00Z,28.1930,-82.7890,1.0,89.193,1111122 
COMPS,ioos:station:USF.COMPS:ANC:1,2009-08-04T19:54:00Z,28.1930,-82.7890,1.0,89.274,1111122 
COMPS,ioos:station:USF.COMPS:ANC:1,2009-08-08T21:00:00Z,28.1930,-82.7890,1.0,40.516,1111122 
COMPS,ioos:station:USF.COMPS:ANC:1,2009-08-08T21:06:00Z,28.1930,-82.7890,1.0,40.536,1111122 
COMPS,ioos:station:USF.COMPS:ANC:1,2009-08-08T21:12:00Z,28.1930,-82.7890,1.0,40.539,1111122 
COMPS,ioos:station:USF.COMPS:ANC:1,2009-08-08T21:18:00Z,28.1930,-82.7890,1.0,40.555,1111122 
COMPS,ioos:station:USF.COMPS:ANC:1,2009-08-08T21:24:00Z,28.1930,-82.7890,1.0,40.594,1111122 
COMPS,ioos:station:USF.COMPS:ANC:1,2009-08-08T21:30:00Z,28.1930,-82.7890,1.0,40.627,1111122 
COMPS,ioos:station:USF.COMPS:ANC:1,2009-08-08T21:36:00Z,28.1930,-82.7890,1.0,40.629,1111122 
COMPS,ioos:station:USF.COMPS:ANC:1,2009-08-08T21:42:00Z,28.1930,-82.7890,1.0,40.646,1111122 
COMPS,ioos:station:USF.COMPS:ANC:1,2009-08-08T21:48:00Z,28.1930,-82.7890,1.0,40.663,1111122 
COMPS,ioos:station:USF.COMPS:ANC:1,2009-08-08T21:54:00Z,28.1930,-82.7890,1.0,40.694,1111122 
COMPS,ioos:station:USF.COMPS:ANC:1,2009-08-08T22:00:00Z,28.1930,-82.7890,1.0,40.704,1111122 
COMPS,ioos:station:USF.COMPS:ANC:1,2009-08-08T22:06:00Z,28.1930,-82.7890,1.0,40.734,1111122 
COMPS,ioos:station:USF.COMPS:ANC:1,2009-08-08T22:12:00Z,28.1930,-82.7890,1.0,40.777,1111122 
COMPS,ioos:station:USF.COMPS:ANC:1,2009-08-08T22:18:00Z,28.1930,-82.7890,1.0,40.792,1111122 
COMPS,ioos:station:USF.COMPS:ANC:1,2009-08-08T22:24:00Z,28.1930,-82.7890,1.0,40.838,1111122 
COMPS,ioos:station:USF.COMPS:ANC:1,2009-08-08T22:30:00Z,28.1930,-82.7890,1.0,40.872,1111122 
COMPS,ioos:station:USF.COMPS:ANC:1,2009-08-08T22:36:00Z,28.1930,-82.7890,1.0,40.908,1111122 
COMPS,ioos:station:USF.COMPS:ANC:1,2009-08-08T22:42:00Z,28.1930,-82.7890,1.0,40.932,1111122 
COMPS,ioos:station:USF.COMPS:ANC:1,2009-08-08T22:48:00Z,28.1930,-82.7890,1.0,40.898,1111122 
COMPS,ioos:station:USF.COMPS:ANC:1,2009-08-08T22:54:00Z,28.1930,-82.7890,1.0,40.852,1111122 
COMPS,ioos:station:USF.COMPS:ANC:1,2009-08-08T23:00:00Z,28.1930,-82.7890,1.0,40.86,1111122 
COMPS,ioos:station:USF.COMPS:ANC:1,2009-08-08T23:06:00Z,28.1930,-82.7890,1.0,40.829,1111122 
COMPS,ioos:station:USF.COMPS:ANC:1,2009-08-08T23:12:00Z,28.1930,-82.7890,1.0,40.804,1111122 
COMPS,ioos:station:USF.COMPS:ANC:1,2009-08-08T23:18:00Z,28.1930,-82.7890,1.0,40.781,1111122 
COMPS,ioos:station:USF.COMPS:ANC:1,2009-08-08T23:24:00Z,28.1930,-82.7890,1.0,40.764,1111122 
COMPS,ioos:station:USF.COMPS:ANC:1,2009-08-08T23:30:00Z,28.1930,-82.7890,1.0,40.747,1111122 
COMPS,ioos:station:USF.COMPS:ANC:1,2009-08-08T23:36:00Z,28.1930,-82.7890,1.0,40.756,1111122 
COMPS,ioos:station:USF.COMPS:ANC:1,2009-08-08T23:42:00Z,28.1930,-82.7890,1.0,40.761,1111122 
COMPS,ioos:station:USF.COMPS:ANC:1,2009-08-08T23:48:00Z,28.1930,-82.7890,1.0,40.742,1111122 
COMPS,ioos:station:USF.COMPS:ANC:1,2009-08-08T23:54:00Z,28.1930,-82.7890,1.0,40.711,1111122 
COMPS,ioos:station:USF.COMPS:ANC:1,2009-08-09T00:00:00Z,28.1930,-82.7890,1.0,40.694,1111122 
COMPS,ioos:station:USF.COMPS:ANC:1,2009-08-09T00:06:00Z,28.1930,-82.7890,1.0,40.668,1111122 
COMPS,ioos:station:USF.COMPS:ANC:1,2009-08-09T00:12:00Z,28.1930,-82.7890,1.0,40.605,1111122 
COMPS,ioos:station:USF.COMPS:ANC:1,2009-08-09T00:18:00Z,28.1930,-82.7890,1.0,40.49,1111122 
COMPS,ioos:station:USF.COMPS:ANC:1,2009-08-09T00:24:00Z,28.1930,-82.7890,1.0,40.387,1111122 
COMPS,ioos:station:USF.COMPS:ANC:1,2009-08-09T00:30:00Z,28.1930,-82.7890,1.0,40.312,1111122 
COMPS,ioos:station:USF.COMPS:ANC:1,2009-08-09T00:36:00Z,28.1930,-82.7890,1.0,40.249,1111122 
COMPS,ioos:station:USF.COMPS:ANC:1,2009-08-09T00:42:00Z,28.1930,-82.7890,1.0,40.194,1111122 
COMPS,ioos:station:USF.COMPS:ANC:1,2009-08-09T00:48:00Z,28.1930,-82.7890,1.0,40.113,1111122 
COMPS,ioos:station:USF.COMPS:ANC:1,2009-08-09T00:54:00Z,28.1930,-82.7890,1.0,40.038,1111122 
COMPS,ioos:station:USF.COMPS:ANC:1,2009-08-09T01:00:00Z,28.1930,-82.7890,1.0,39.95,1111122 
COMPS,ioos:station:USF.COMPS:ANC:1,2009-08-09T01:06:00Z,28.1930,-82.7890,1.0,39.881,1111122 
COMPS,ioos:station:USF.COMPS:ANC:1,2009-08-09T01:12:00Z,28.1930,-82.7890,1.0,39.798,1111122 
COMPS,ioos:station:USF.COMPS:ANC:1,2009-08-09T01:18:00Z,28.1930,-82.7890,1.0,39.676,1111122 
COMPS,ioos:station:USF.COMPS:ANC:1,2009-08-09T01:24:00Z,28.1930,-82.7890,1.0,39.565,1111122 
COMPS,ioos:station:USF.COMPS:ANC:1,2009-08-09T01:30:00Z,28.1930,-82.7890,1.0,39.475,1111122 
COMPS,ioos:station:USF.COMPS:ANC:1,2009-08-09T01:36:00Z,28.1930,-82.7890,1.0,39.398,1111122 
COMPS,ioos:station:USF.COMPS:ANC:1,2009-08-09T01:42:00Z,28.1930,-82.7890,1.0,39.322,1111122 
COMPS,ioos:station:USF.COMPS:ANC:1,2009-08-09T01:48:00Z,28.1930,-82.7890,1.0,39.256,1111122 
COMPS,ioos:station:USF.COMPS:ANC:1,2009-08-09T01:54:00Z,28.1930,-82.7890,1.0,39.185,1111122 
COMPS,ioos:station:USF.COMPS:ANC:1,2009-08-09T02:00:00Z,28.1930,-82.7890,1.0,39.119,1111122 
COMPS,ioos:station:USF.COMPS:ANC:1,2009-08-09T02:06:00Z,28.1930,-82.7890,1.0,39.06,1111122 
COMPS,ioos:station:USF.COMPS:ANC:1,2009-08-09T02:12:00Z,28.1930,-82.7890,1.0,39.003,1111122 
COMPS,ioos:station:USF.COMPS:ANC:1,2009-08-09T02:18:00Z,28.1930,-82.7890,1.0,38.927,1111122 
COMPS,ioos:station:USF.COMPS:ANC:1,2009-08-09T02:24:00Z,28.1930,-82.7890,1.0,38.855,1111122 
COMPS,ioos:station:USF.COMPS:ANC:1,2009-08-09T02:30:00Z,28.1930,-82.7890,1.0,38.795,1111122 
COMPS,ioos:station:USF.COMPS:ANC:1,2009-08-09T02:36:00Z,28.1930,-82.7890,1.0,38.703,1111122 
COMPS,ioos:station:USF.COMPS:ANC:1,2009-08-09T02:42:00Z,28.1930,-82.7890,1.0,38.642,1111122 
COMPS,ioos:station:USF.COMPS:ANC:1,2009-08-09T02:48:00Z,28.1930,-82.7890,1.0,38.588,1111122 
COMPS,ioos:station:USF.COMPS:ANC:1,2009-08-09T02:54:00Z,28.1930,-82.7890,1.0,38.497,1111122 
COMPS,ioos:station:USF.COMPS:ANC:1,2009-08-09T03:00:00Z,28.1930,-82.7890,1.0,38.383,1111122 
COMPS,ioos:station:USF.COMPS:ANC:1,2009-08-09T03:06:00Z,28.1930,-82.7890,1.0,38.266,1111122 
COMPS,ioos:station:USF.COMPS:ANC:1,2009-08-09T03:12:00Z,28.1930,-82.7890,1.0,38.194,1111122 
COMPS,ioos:station:USF.COMPS:ANC:1,2009-08-09T03:18:00Z,28.1930,-82.7890,1.0,38.112,1111122 
COMPS,ioos:station:USF.COMPS:ANC:1,2009-08-09T03:24:00Z,28.1930,-82.7890,1.0,38.069,1111122 
COMPS,ioos:station:USF.COMPS:ANC:1,2009-08-09T03:30:00Z,28.1930,-82.7890,1.0,38.038,1111122 
COMPS,ioos:station:USF.COMPS:ANC:1,2009-08-09T03:36:00Z,28.1930,-82.7890,1.0,38.02,1111122 
COMPS,ioos:station:USF.COMPS:ANC:1,2009-08-09T03:42:00Z,28.1930,-82.7890,1.0,38.017,1111122 
COMPS,ioos:station:USF.COMPS:ANC:1,2009-08-09T03:48:00Z,28.1930,-82.7890,1.0,38.037,1111122 
COMPS,ioos:station:USF.COMPS:ANC:1,2009-08-09T03:54:00Z,28.1930,-82.7890,1.0,38.056,1111122 
COMPS,ioos:station:USF.COMPS:ANC:1,2009-08-09T05:00:00Z,28.1930,-82.7890,1.0,38.783,1111122 
COMPS,ioos:station:USF.COMPS:ANC:1,2009-08-09T05:06:00Z,28.1930,-82.7890,1.0,38.865,1111122 
COMPS,ioos:station:USF.COMPS:ANC:1,2009-08-09T05:12:00Z,28.1930,-82.7890,1.0,38.941,1111122 
COMPS,ioos:station:USF.COMPS:ANC:1,2009-08-09T05:18:00Z,28.1930,-82.7890,1.0,39.026,1111122 
COMPS,ioos:station:USF.COMPS:ANC:1,2009-08-09T05:24:00Z,28.1930,-82.7890,1.0,39.118,1111122 
COMPS,ioos:station:USF.COMPS:ANC:1,2009-08-09T05:30:00Z,28.1930,-82.7890,1.0,39.189,1111122 
COMPS,ioos:station:USF.COMPS:ANC:1,2009-08-09T05:36:00Z,28.1930,-82.7890,1.0,39.253,1111122 
COMPS,ioos:station:USF.COMPS:ANC:1,2009-08-09T05:42:00Z,28.1930,-82.7890,1.0,39.332,1111122 
COMPS,ioos:station:USF.COMPS:ANC:1,2009-08-09T05:48:00Z,28.1930,-82.7890,1.0,39.398,1111122 
COMPS,ioos:station:USF.COMPS:ANC:1,2009-08-09T05:54:00Z,28.1930,-82.7890,1.0,39.439,1111122 
COMPS,ioos:station:USF.COMPS:ANC:1,2009-08-09T06:00:00Z,28.1930,-82.7890,1.0,39.467,1111122 
COMPS,ioos:station:USF.COMPS:ANC:1,2009-08-09T06:06:00Z,28.1930,-82.7890,1.0,39.51,1111122 
COMPS,ioos:station:USF.COMPS:ANC:1,2009-08-09T06:12:00Z,28.1930,-82.7890,1.0,39.539,1111122 
COMPS,ioos:station:USF.COMPS:ANC:1,2009-08-09T06:18:00Z,28.1930,-82.7890,1.0,39.547,1111122 
COMPS,ioos:station:USF.COMPS:ANC:1,2009-08-09T06:24:00Z,28.1930,-82.7890,1.0,39.56,1111122 
COMPS,ioos:station:USF.COMPS:ANC:1,2009-08-09T06:30:00Z,28.1930,-82.7890,1.0,39.56,1111122 
COMPS,ioos:station:USF.COMPS:ANC:1,2009-08-09T06:36:00Z,28.1930,-82.7890,1.0,39.568,1111122 
COMPS,ioos:station:USF.COMPS:ANC:1,2009-08-09T06:42:00Z,28.1930,-82.7890,1.0,39.605,1111122 
COMPS,ioos:station:USF.COMPS:ANC:1,2009-08-09T06:48:00Z,28.1930,-82.7890,1.0,39.619,1111122 
COMPS,ioos:station:USF.COMPS:ANC:1,2009-08-09T06:54:00Z,28.1930,-82.7890,1.0,39.641,1111122 
COMPS,ioos:station:USF.COMPS:ANC:1,2009-08-09T07:00:00Z,28.1930,-82.7890,1.0,39.654,1111122 
COMPS,ioos:station:USF.COMPS:ANC:1,2009-08-09T07:06:00Z,28.1930,-82.7890,1.0,39.654,1111122 
COMPS,ioos:station:USF.COMPS:ANC:1,2009-08-09T07:12:00Z,28.1930,-82.7890,1.0,39.661,1111122 
COMPS,ioos:station:USF.COMPS:ANC:1,2009-08-09T07:18:00Z,28.1930,-82.7890,1.0,39.654,1111122 
COMPS,ioos:station:USF.COMPS:ANC:1,2009-08-09T07:24:00Z,28.1930,-82.7890,1.0,39.648,1111122 
COMPS,ioos:station:USF.COMPS:ANC:1,2009-08-09T07:30:00Z,28.1930,-82.7890,1.0,39.648,1111122 
COMPS,ioos:station:USF.COMPS:ANC:1,2009-08-09T07:36:00Z,28.1930,-82.7890,1.0,39.656,1111122 
COMPS,ioos:station:USF.COMPS:ANC:1,2009-08-09T07:42:00Z,28.1930,-82.7890,1.0,39.664,1111122 
COMPS,ioos:station:USF.COMPS:ANC:1,2009-08-09T07:48:00Z,28.1930,-82.7890,1.0,39.656,1111122 
COMPS,ioos:station:USF.COMPS:ANC:1,2009-08-09T07:54:00Z,28.1930,-82.7890,1.0,39.63,1111122 
COMPS,ioos:station:USF.COMPS:ANC:1,2009-08-09T08:00:00Z,28.1930,-82.7890,1.0,39.594,1111122 
COMPS,ioos:station:USF.COMPS:ANC:1,2009-08-09T08:06:00Z,28.1930,-82.7890,1.0,39.504,1111122 
COMPS,ioos:station:USF.COMPS:ANC:1,2009-08-09T08:12:00Z,28.1930,-82.7890,1.0,39.486,1111122 
COMPS,ioos:station:USF.COMPS:ANC:1,2009-08-09T08:18:00Z,28.1930,-82.7890,1.0,39.482,1111122 
COMPS,ioos:station:USF.COMPS:ANC:1,2009-08-09T08:24:00Z,28.1930,-82.7890,1.0,39.512,1111122 
COMPS,ioos:station:USF.COMPS:ANC:1,2009-08-09T08:30:00Z,28.1930,-82.7890,1.0,39.527,1111122 
COMPS,ioos:station:USF.COMPS:ANC:1,2009-08-09T08:36:00Z,28.1930,-82.7890,1.0,39.556,1111122 
COMPS,ioos:station:USF.COMPS:ANC:1,2009-08-09T08:42:00Z,28.1930,-82.7890,1.0,39.589,1111122 
COMPS,ioos:station:USF.COMPS:ANC:1,2009-08-09T08:48:00Z,28.1930,-82.7890,1.0,39.61,1111122 
COMPS,ioos:station:USF.COMPS:ANC:1,2009-08-09T08:54:00Z,28.1930,-82.7890,1.0,39.622,1111122 
COMPS,ioos:station:USF.COMPS:ANC:1,2009-08-09T09:00:00Z,28.1930,-82.7890,1.0,39.628,1111122 
COMPS,ioos:station:USF.COMPS:ANC:1,2009-08-09T09:06:00Z,28.1930,-82.7890,1.0,39.628,1111122 
COMPS,ioos:station:USF.COMPS:ANC:1,2009-08-09T09:12:00Z,28.1930,-82.7890,1.0,39.643,1111122 
COMPS,ioos:station:USF.COMPS:ANC:1,2009-08-09T09:18:00Z,28.1930,-82.7890,1.0,39.656,1111122 
COMPS,ioos:station:USF.COMPS:ANC:1,2009-08-09T09:24:00Z,28.1930,-82.7890,1.0,39.678,1111122 
COMPS,ioos:station:USF.COMPS:ANC:1,2009-08-09T09:30:00Z,28.1930,-82.7890,1.0,39.7,1111122 
COMPS,ioos:station:USF.COMPS:ANC:1,2009-08-09T09:36:00Z,28.1930,-82.7890,1.0,39.707,1111122 
COMPS,ioos:station:USF.COMPS:ANC:1,2009-08-09T09:42:00Z,28.1930,-82.7890,1.0,39.702,1111122 
COMPS,ioos:station:USF.COMPS:ANC:1,2009-08-09T09:48:00Z,28.1930,-82.7890,1.0,39.718,1111122 
COMPS,ioos:station:USF.COMPS:ANC:1,2009-08-09T09:54:00Z,28.1930,-82.7890,1.0,39.729,1111122 
COMPS,ioos:station:USF.COMPS:ANC:1,2009-08-09T10:00:00Z,28.1930,-82.7890,1.0,39.739,1111122 
COMPS,ioos:station:USF.COMPS:ANC:1,2009-08-09T10:06:00Z,28.1930,-82.7890,1.0,39.757,1111122 
COMPS,ioos:station:USF.COMPS:ANC:1,2009-08-09T10:12:00Z,28.1930,-82.7890,1.0,39.768,1111122 
COMPS,ioos:station:USF.COMPS:ANC:1,2009-08-09T10:18:00Z,28.1930,-82.7890,1.0,39.777,1111122 
COMPS,ioos:station:USF.COMPS:ANC:1,2009-08-09T10:24:00Z,28.1930,-82.7890,1.0,39.78,1111122 
COMPS,ioos:station:USF.COMPS:ANC:1,2009-08-09T10:30:00Z,28.1930,-82.7890,1.0,39.78,1111122 
COMPS,ioos:station:USF.COMPS:ANC:1,2009-08-09T10:36:00Z,28.1930,-82.7890,1.0,39.781,1111122 
COMPS,ioos:station:USF.COMPS:ANC:1,2009-08-09T10:42:00Z,28.1930,-82.7890,1.0,39.776,1111122 
COMPS,ioos:station:USF.COMPS:ANC:1,2009-08-09T10:48:00Z,28.1930,-82.7890,1.0,39.769,1111122 
COMPS,ioos:station:USF.COMPS:ANC:1,2009-08-09T10:54:00Z,28.1930,-82.7890,1.0,39.77,1111122 
COMPS,ioos:station:USF.COMPS:ANC:1,2009-08-09T11:00:00Z,28.1930,-82.7890,1.0,39.758,1111122 
COMPS,ioos:station:USF.COMPS:ANC:1,2009-08-09T11:06:00Z,28.1930,-82.7890,1.0,39.739,1111122 
COMPS,ioos:station:USF.COMPS:ANC:1,2009-08-09T11:12:00Z,28.1930,-82.7890,1.0,39.727,1111122 
COMPS,ioos:station:USF.COMPS:ANC:1,2009-08-09T11:18:00Z,28.1930,-82.7890,1.0,39.715,1111122 
COMPS,ioos:station:USF.COMPS:ANC:1,2009-08-09T11:24:00Z,28.1930,-82.7890,1.0,39.696,1111122 
COMPS,ioos:station:USF.COMPS:ANC:1,2009-08-09T11:30:00Z,28.1930,-82.7890,1.0,39.676,1111122 
COMPS,ioos:station:USF.COMPS:ANC:1,2009-08-09T11:36:00Z,28.1930,-82.7890,1.0,39.659,1111122 
COMPS,ioos:station:USF.COMPS:ANC:1,2009-08-09T11:42:00Z,28.1930,-82.7890,1.0,39.632,1111122 
COMPS,ioos:station:USF.COMPS:ANC:1,2009-08-09T11:48:00Z,28.1930,-82.7890,1.0,39.598,1111122 
COMPS,ioos:station:USF.COMPS:ANC:1,2009-08-09T11:54:00Z,28.1930,-82.7890,1.0,39.565,1111122 
COMPS,ioos:station:USF.COMPS:ANC:1,2009-08-09T12:00:00Z,28.1930,-82.7890,1.0,39.524,1111122 
COMPS,ioos:station:USF.COMPS:ANC:1,2009-08-09T12:06:00Z,28.1930,-82.7890,1.0,39.491,1111122 
COMPS,ioos:station:USF.COMPS:ANC:1,2009-08-09T12:12:00Z,28.1930,-82.7890,1.0,39.45,1111122 
COMPS,ioos:station:USF.COMPS:ANC:1,2009-08-09T12:18:00Z,28.1930,-82.7890,1.0,39.401,1111122 
COMPS,ioos:station:USF.COMPS:ANC:1,2009-08-09T12:24:00Z,28.1930,-82.7890,1.0,39.362,1111122 
COMPS,ioos:station:USF.COMPS:ANC:1,2009-08-09T12:30:00Z,28.1930,-82.7890,1.0,39.3,1111122 
COMPS,ioos:station:USF.COMPS:ANC:1,2009-08-09T12:36:00Z,28.1930,-82.7890,1.0,39.252,1111122 
COMPS,ioos:station:USF.COMPS:ANC:1,2009-08-09T12:42:00Z,28.1930,-82.7890,1.0,39.212,1111122 
COMPS,ioos:station:USF.COMPS:ANC:1,2009-08-09T12:48:00Z,28.1930,-82.7890,1.0,39.165,1111122 
COMPS,ioos:station:USF.COMPS:ANC:1,2009-08-09T12:54:00Z,28.1930,-82.7890,1.0,39.118,1111122 
COMPS,ioos:station:USF.COMPS:ANC:1,2009-08-09T13:00:00Z,28.1930,-82.7890,1.0,39.021,1111122 
COMPS,ioos:station:USF.COMPS:ANC:1,2009-08-09T13:06:00Z,28.1930,-82.7890,1.0,38.968,1111122 
COMPS,ioos:station:USF.COMPS:ANC:1,2009-08-09T13:12:00Z,28.1930,-82.7890,1.0,38.893,1111122 
COMPS,ioos:station:USF.COMPS:ANC:1,2009-08-09T13:18:00Z,28.1930,-82.7890,1.0,38.783,1111122 
COMPS,ioos:station:USF.COMPS:ANC:1,2009-08-09T13:24:00Z,28.1930,-82.7890,1.0,38.692,1111122 
COMPS,ioos:station:USF.COMPS:ANC:1,2009-08-09T13:30:00Z,28.1930,-82.7890,1.0,38.621,1111122 
COMPS,ioos:station:USF.COMPS:ANC:1,2009-08-09T13:36:00Z,28.1930,-82.7890,1.0,38.543,1111122 
COMPS,ioos:station:USF.COMPS:ANC:1,2009-08-09T13:42:00Z,28.1930,-82.7890,1.0,38.45,1111122 
COMPS,ioos:station:USF.COMPS:ANC:1,2009-08-09T13:48:00Z,28.1930,-82.7890,1.0,38.378,1111122 
COMPS,ioos:station:USF.COMPS:ANC:1,2009-08-09T13:54:00Z,28.1930,-82.7890,1.0,38.306,1111122 
COMPS,ioos:station:USF.COMPS:ANC:1,2009-08-09T14:00:00Z,28.1930,-82.7890,1.0,38.235,1111122 
COMPS,ioos:station:USF.COMPS:ANC:1,2009-08-09T14:06:00Z,28.1930,-82.7890,1.0,38.166,1111122 
COMPS,ioos:station:USF.COMPS:ANC:1,2009-08-09T14:12:00Z,28.1930,-82.7890,1.0,38.096,1111122 
COMPS,ioos:station:USF.COMPS:ANC:1,2009-08-09T14:18:00Z,28.1930,-82.7890,1.0,38.054,1111122 
COMPS,ioos:station:USF.COMPS:ANC:1,2009-08-09T14:24:00Z,28.1930,-82.7890,1.0,37.998,1111122 
COMPS,ioos:station:USF.COMPS:ANC:1,2009-08-09T14:30:00Z,28.1930,-82.7890,1.0,37.914,1111122 
COMPS,ioos:station:USF.COMPS:ANC:1,2009-08-09T14:36:00Z,28.1930,-82.7890,1.0,37.865,1111122 
COMPS,ioos:station:USF.COMPS:ANC:1,2009-08-09T14:42:00Z,28.1930,-82.7890,1.0,37.788,1111122 
COMPS,ioos:station:USF.COMPS:ANC:1,2009-08-09T14:48:00Z,28.1930,-82.7890,1.0,37.748,1111122 
COMPS,ioos:station:USF.COMPS:ANC:1,2009-08-09T14:54:00Z,28.1930,-82.7890,1.0,37.722,1111122 
COMPS,ioos:station:USF.COMPS:ANC:1,2009-08-09T15:00:00Z,28.1930,-82.7890,1.0,37.702,1111122 
COMPS,ioos:station:USF.COMPS:ANC:1,2009-08-09T15:06:00Z,28.1930,-82.7890,1.0,37.696,1111122 
COMPS,ioos:station:USF.COMPS:ANC:1,2009-08-09T15:12:00Z,28.1930,-82.7890,1.0,37.681,1111122 
COMPS,ioos:station:USF.COMPS:ANC:1,2009-08-09T15:18:00Z,28.1930,-82.7890,1.0,37.687,1111122 
COMPS,ioos:station:USF.COMPS:ANC:1,2009-08-09T15:24:00Z,28.1930,-82.7890,1.0,37.732,1111122 
COMPS,ioos:station:USF.COMPS:ANC:1,2009-08-09T15:30:00Z,28.1930,-82.7890,1.0,37.768,1111122 
COMPS,ioos:station:USF.COMPS:ANC:1,2009-08-09T15:36:00Z,28.1930,-82.7890,1.0,37.894,1111122 
COMPS,ioos:station:USF.COMPS:ANC:1,2009-08-09T15:42:00Z,28.1930,-82.7890,1.0,38.011,1111122 
COMPS,ioos:station:USF.COMPS:ANC:1,2009-08-09T15:48:00Z,28.1930,-82.7890,1.0,38.114,1111122 
COMPS,ioos:station:USF.COMPS:ANC:1,2009-08-09T15:54:00Z,28.1930,-82.7890,1.0,38.198,1111122 
COMPS,ioos:station:USF.COMPS:ANC:1,2009-08-09T16:00:00Z,28.1930,-82.7890,1.0,38.282,1111122 
COMPS,ioos:station:USF.COMPS:ANC:1,2009-08-09T16:06:00Z,28.1930,-82.7890,1.0,38.37,1111122 
COMPS,ioos:station:USF.COMPS:ANC:1,2009-08-09T16:12:00Z,28.1930,-82.7890,1.0,38.587,1111122 
COMPS,ioos:station:USF.COMPS:ANC:1,2009-08-09T16:18:00Z,28.1930,-82.7890,1.0,38.937,1111122 
COMPS,ioos:station:USF.COMPS:ANC:1,2009-08-09T16:24:00Z,28.1930,-82.7890,1.0,39.103,1111122 
COMPS,ioos:station:USF.COMPS:ANC:1,2009-08-09T16:30:00Z,28.1930,-82.7890,1.0,39.204,1111122 
COMPS,ioos:station:USF.COMPS:ANC:1,2009-08-09T16:36:00Z,28.1930,-82.7890,1.0,39.264,1111122 
COMPS,ioos:station:USF.COMPS:ANC:1,2009-08-09T16:42:00Z,28.1930,-82.7890,1.0,39.316,1111122 
COMPS,ioos:station:USF.COMPS:ANC:1,2009-08-09T16:48:00Z,28.1930,-82.7890,1.0,39.403,1111122 
COMPS,ioos:station:USF.COMPS:ANC:1,2009-08-09T16:54:00Z,28.1930,-82.7890,1.0,39.403,1111122 
COMPS,ioos:station:USF.COMPS:ANC:1,2009-08-09T17:00:00Z,28.1930,-82.7890,1.0,39.433,1111122 
COMPS,ioos:station:USF.COMPS:ANC:1,2009-08-09T17:06:00Z,28.1930,-82.7890,1.0,39.515,1111122 
COMPS,ioos:station:USF.COMPS:ANC:1,2009-08-09T17:12:00Z,28.1930,-82.7890,1.0,39.549,1111122 
COMPS,ioos:station:USF.COMPS:ANC:1,2009-08-09T17:18:00Z,28.1930,-82.7890,1.0,39.567,1111122 
COMPS,ioos:station:USF.COMPS:ANC:1,2009-08-09T17:24:00Z,28.1930,-82.7890,1.0,39.582,1111122 
COMPS,ioos:station:USF.COMPS:ANC:1,2009-08-09T17:30:00Z,28.1930,-82.7890,1.0,39.575,1111122 
COMPS,ioos:station:USF.COMPS:ANC:1,2009-08-09T17:36:00Z,28.1930,-82.7890,1.0,39.532,1111122 
COMPS,ioos:station:USF.COMPS:ANC:1,2009-08-09T17:42:00Z,28.1930,-82.7890,1.0,39.475,1111122 
COMPS,ioos:station:USF.COMPS:ANC:1,2009-08-09T17:48:00Z,28.1930,-82.7890,1.0,39.477,1111122 
COMPS,ioos:station:USF.COMPS:ANC:1,2009-08-09T17:54:00Z,28.1930,-82.7890,1.0,39.484,1111122 
COMPS,ioos:station:USF.COMPS:ANC:1,2009-08-09T18:00:00Z,28.1930,-82.7890,1.0,39.48,1111122 
COMPS,ioos:station:USF.COMPS:ANC:1,2009-08-09T18:06:00Z,28.1930,-82.7890,1.0,39.528,1111122 
COMPS,ioos:station:USF.COMPS:ANC:1,2009-08-09T18:12:00Z,28.1930,-82.7890,1.0,39.572,1111122 
COMPS,ioos:station:USF.COMPS:ANC:1,2009-08-09T18:18:00Z,28.1930,-82.7890,1.0,39.587,1111122 
COMPS,ioos:station:USF.COMPS:ANC:1,2009-08-09T18:24:00Z,28.1930,-82.7890,1.0,39.635,1111122 
COMPS,ioos:station:USF.COMPS:ANC:1,2009-08-09T18:30:00Z,28.1930,-82.7890,1.0,39.667,1111122 
COMPS,ioos:station:USF.COMPS:ANC:1,2009-08-09T18:36:00Z,28.1930,-82.7890,1.0,39.692,1111122 
COMPS,ioos:station:USF.COMPS:ANC:1,2009-08-09T18:42:00Z,28.1930,-82.7890,1.0,39.716,1111122 
COMPS,ioos:station:USF.COMPS:ANC:1,2009-08-09T18:48:00Z,28.1930,-82.7890,1.0,39.75,1111122 
COMPS,ioos:station:USF.COMPS:ANC:1,2009-08-09T18:54:00Z,28.1930,-82.7890,1.0,39.763,1111122 
COMPS,ioos:station:USF.COMPS:ANC:1,2009-08-09T19:00:00Z,28.1930,-82.7890,1.0,39.76,1111122 
COMPS,ioos:station:USF.COMPS:ANC:1,2009-08-09T19:06:00Z,28.1930,-82.7890,1.0,39.75,1111122 
COMPS,ioos:station:USF.COMPS:ANC:1,2009-08-09T19:12:00Z,28.1930,-82.7890,1.0,39.716,1111122 
COMPS,ioos:station:USF.COMPS:ANC:1,2009-08-09T19:18:00Z,28.1930,-82.7890,1.0,39.74,1111122 
COMPS,ioos:station:USF.COMPS:ANC:1,2009-08-09T19:24:00Z,28.1930,-82.7890,1.0,39.743,1111122 
COMPS,ioos:station:USF.COMPS:ANC:1,2009-08-09T19:30:00Z,28.1930,-82.7890,1.0,39.743,1111122 
COMPS,ioos:station:USF.COMPS:ANC:1,2009-08-09T19:36:00Z,28.1930,-82.7890,1.0,39.762,1111122 
COMPS,ioos:station:USF.COMPS:ANC:1,2009-08-09T19:42:00Z,28.1930,-82.7890,1.0,39.866,1111122 
COMPS,ioos:station:USF.COMPS:ANC:1,2009-08-09T19:48:00Z,28.1930,-82.7890,1.0,39.932,1111122 
COMPS,ioos:station:USF.COMPS:ANC:1,2009-08-09T19:54:00Z,28.1930,-82.7890,1.0,39.982,1111122 
COMPS,ioos:station:USF.COMPS:ANC:1,2009-08-09T20:00:00Z,28.1930,-82.7890,1.0,40.026,1111122 
COMPS,ioos:station:USF.COMPS:ANC:1,2009-08-09T20:06:00Z,28.1930,-82.7890,1.0,40.062,1111122 
COMPS,ioos:station:USF.COMPS:ANC:1,2009-08-09T20:12:00Z,28.1930,-82.7890,1.0,40.046,1111122 
COMPS,ioos:station:USF.COMPS:ANC:1,2009-08-09T20:18:00Z,28.1930,-82.7890,1.0,40.03,1111122 
COMPS,ioos:station:USF.COMPS:ANC:1,2009-08-09T20:24:00Z,28.1930,-82.7890,1.0,40.019,1111122 
COMPS,ioos:station:USF.COMPS:ANC:1,2009-08-09T20:30:00Z,28.1930,-82.7890,1.0,40.021,1111122 
COMPS,ioos:station:USF.COMPS:ANC:1,2009-08-09T20:36:00Z,28.1930,-82.7890,1.0,40.037,1111122 
COMPS,ioos:station:USF.COMPS:ANC:1,2009-08-09T20:42:00Z,28.1930,-82.7890,1.0,40.062,1111122 
COMPS,ioos:station:USF.COMPS:ANC:1,2009-08-09T20:48:00Z,28.1930,-82.7890,1.0,40.073,1111122 
COMPS,ioos:station:USF.COMPS:ANC:1,2009-08-09T20:54:00Z,28.1930,-82.7890,1.0,40.077,1111122 
COMPS,ioos:station:USF.COMPS:ANC:1,2009-08-09T21:00:00Z,28.1930,-82.7890,1.0,40.068,1111122 
COMPS,ioos:station:USF.COMPS:ANC:1,2009-08-09T21:06:00Z,28.1930,-82.7890,1.0,40.063,1111122 
COMPS,ioos:station:USF.COMPS:ANC:1,2009-08-09T21:12:00Z,28.1930,-82.7890,1.0,40.08,1111122 
COMPS,ioos:station:USF.COMPS:ANC:1,2009-08-09T21:18:00Z,28.1930,-82.7890,1.0,40.113,1111122 
COMPS,ioos:station:USF.COMPS:ANC:1,2009-08-09T21:24:00Z,28.1930,-82.7890,1.0,40.118,1111122 
COMPS,ioos:station:USF.COMPS:ANC:1,2009-08-09T21:30:00Z,28.1930,-82.7890,1.0,40.123,1111122 
COMPS,ioos:station:USF.COMPS:ANC:1,2009-08-09T21:36:00Z,28.1930,-82.7890,1.0,40.144,1111122 
COMPS,ioos:station:USF.COMPS:ANC:1,2009-08-09T21:42:00Z,28.1930,-82.7890,1.0,40.152,1111122 
COMPS,ioos:station:USF.COMPS:ANC:1,2009-08-09T21:48:00Z,28.1930,-82.7890,1.0,40.159,1111122 
COMPS,ioos:station:USF.COMPS:ANC:1,2009-08-09T21:54:00Z,28.1930,-82.7890,1.0,40.177,1111122 
COMPS,ioos:station:USF.COMPS:ANC:1,2009-08-09T22:00:00Z,28.1930,-82.7890,1.0,40.165,1111122 
COMPS,ioos:station:USF.COMPS:ANC:1,2009-08-09T22:06:00Z,28.1930,-82.7890,1.0,40.167,1111122 
COMPS,ioos:station:USF.COMPS:ANC:1,2009-08-09T22:12:00Z,28.1930,-82.7890,1.0,40.182,1111122 
COMPS,ioos:station:USF.COMPS:ANC:1,2009-08-09T22:18:00Z,28.1930,-82.7890,1.0,40.199,1111122 
COMPS,ioos:station:USF.COMPS:ANC:1,2009-08-09T22:24:00Z,28.1930,-82.7890,1.0,40.23,1111122 
COMPS,ioos:station:USF.COMPS:ANC:1,2009-08-09T22:30:00Z,28.1930,-82.7890,1.0,40.249,1111122 
COMPS,ioos:station:USF.COMPS:ANC:1,2009-08-09T22:36:00Z,28.1930,-82.7890,1.0,40.262,1111122 